Tonopah, NV

10:36 AM PDT on March 24, 2017 (GMT -0700)
Tonopah

Weather History for KTPH - October, 2012

Change the Weather History Date:

Tuesday, October 9, 2012

  Actual Average Record
Temperature  
Mean Temperature 59 °F 56 °F  
Max Temperature 74 °F 71 °F 87 °F (1996)
Min Temperature 43 °F 40 °F 28 °F (1973)
Degree Days  
Heating Degree Days 6 10  
Month to date heating degree days 20 73  
Since 1 July heating degree days 24 164  
Cooling Degree Days 0 0  
Month to date cooling degree days 7 0  
Year to date cooling degree days 1004 781  
Growing Degree Days 8 (Base 50)    
Moisture  
Dew Point 17 °F    
Average Humidity 22    
Maximum Humidity 33    
Minimum Humidity 10    
Precipitation  
Precipitation 0.00 in 0.01 in 0.29 in (1985)
Month to date precipitation 0.00 0.10  
Year to date precipitation 4.82 4.25  
Sea Level Pressure  
Sea Level Pressure 29.89 in    
Wind  
Wind Speed 9 mph (SE)    
Max Wind Speed 20 mph    
Max Gust Speed 28 mph    
Visibility 10 miles    
Events      
T = Trace of Precipitation, MM = Missing Value Source: NWS Daily Summary

Daily Weather History Graph

Daily Weather History Graph

Search for Another Location

Airport or City:

Trip Planner

Search our weather history database for the weather conditions in past years. The results will help you decide how hot, cold, wet, or windy it might be!

Date:

Astronomy

Oct. 09, 2012 Rise Set
Actual Time 6:51 AM PDT 6:18 PM PDT
Civil Twilight 6:25 AM PDT 6:44 PM PDT
Nautical Twilight 5:54 AM PDT 7:15 PM PDT
Astronomical Twilight 5:24 AM PDT 7:45 PM PDT
Moon 12:38 AM PDT (10/9) 2:43 PM PDT (10/9)
Length of Visible Light 12h 19m
Length of Day
11h 26m
Waning Crescent, 35% of the Moon is Illuminated
Oct 9
Waning Crescent
Oct 15
New
Oct 21
First Quarter
Oct 29
Full
Nov 6
Last Quarter

Hourly Weather History & Observations

Time (PDT) Temp. Windchill Dew Point Humidity Pressure Visibility Wind Dir Wind Speed Gust Speed Precip Events Conditions
12:56 AM 46.9 °F - 15.1 °F 28% 29.89 in 10.0 mi North 6.9 mph - N/A   Clear
1:56 AM 48.9 °F - 17.1 °F 28% 29.88 in 10.0 mi North 6.9 mph - N/A   Clear
2:56 AM 50.0 °F - 18.0 °F 28% 29.87 in 10.0 mi North 5.8 mph - N/A   Clear
3:56 AM 48.9 °F - 18.0 °F 29% 29.87 in 10.0 mi North 6.9 mph - N/A   Clear
4:56 AM 46.9 °F - 18.0 °F 32% 29.88 in 10.0 mi North 5.8 mph - N/A   Clear
5:56 AM 45.0 °F 40.1 °F 18.0 °F 34% 29.91 in 10.0 mi North 9.2 mph - N/A   Clear
6:56 AM 44.1 °F 39.5 °F 18.0 °F 35% 29.93 in 10.0 mi North 8.1 mph - N/A   Clear
7:56 AM 46.9 °F - 18.0 °F 32% 29.96 in 10.0 mi North 9.2 mph - N/A   Clear
8:56 AM 55.9 °F - 17.1 °F 22% 29.95 in 10.0 mi Calm Calm - N/A   Clear
9:56 AM 60.1 °F - 15.1 °F 17% 29.94 in 10.0 mi Variable 4.6 mph - N/A   Clear
10:56 AM 63.0 °F - 19.9 °F 19% 29.94 in 10.0 mi Variable 5.8 mph - N/A   Clear
11:56 AM 66.9 °F - 19.9 °F 17% 29.92 in 10.0 mi South 12.7 mph 18.4 mph N/A   Clear
12:56 PM 71.1 °F - 16.0 °F 12% 29.88 in 10.0 mi South 15.0 mph 21.9 mph N/A   Clear
1:56 PM 71.1 °F - 15.1 °F 12% 29.86 in 10.0 mi South 11.5 mph 18.4 mph N/A   Clear
2:56 PM 72.0 °F - 17.1 °F 12% 29.84 in 10.0 mi South 11.5 mph 20.7 mph N/A   Clear
3:56 PM 71.1 °F - 17.1 °F 13% 29.84 in 10.0 mi South 17.3 mph 21.9 mph N/A   Clear
4:56 PM 70.0 °F - 12.0 °F 11% 29.84 in 10.0 mi South 16.1 mph - N/A   Mostly Cloudy
5:56 PM 68.0 °F - 10.9 °F 11% 29.86 in 10.0 mi South 16.1 mph - N/A   Overcast
6:56 PM 66.0 °F - 15.1 °F 14% 29.89 in 10.0 mi South 12.7 mph - N/A   Overcast
7:56 PM 64.0 °F - 15.1 °F 15% 29.90 in 10.0 mi SSW 10.4 mph - N/A   Overcast
8:56 PM 62.1 °F - 18.0 °F 18% 29.90 in 10.0 mi SE 4.6 mph - N/A   Mostly Cloudy
9:56 PM 60.1 °F - 18.0 °F 20% 29.89 in 10.0 mi ESE 3.5 mph - N/A   Overcast
10:56 PM 59.0 °F - 19.0 °F 21% 29.89 in 10.0 mi SSE 3.5 mph - N/A   Overcast
11:56 PM 59.0 °F - 19.9 °F 22% 29.88 in 10.0 mi SE 3.5 mph - N/A   Partly Cloudy